This is the latest recevied weather packets stored in our database for station/object IZ1UQG-2. If no packets are shown the sender has not sent any weather packets the latest 10 day(s).
| Time | Temp. | Humidity | Pressure | Rain* | Wind** | Luminosity | Snow |
|---|---|---|---|---|---|---|---|
| 1777951564 | 13.33° C | 74% | 1011.2 hPa | 0.25 mm | - | 0 W/m² | - |
| 1777950964 | 13.89° C | 76% | 1011.2 hPa | 0 mm | - | 0 W/m² | - |
| 1777950723 | 13.89° C | 76% | 1011.2 hPa | 0 mm | - | 0 W/m² | - |
| 1777950544 | 13.89° C | 77% | 1011.3 hPa | 0 mm | - | 0 W/m² | - |
| 1777950305 | 13.89° C | 76% | 1011.3 hPa | 0 mm | - | 0 W/m² | - |
| 1777950124 | 14.44° C | 75% | 1011.2 hPa | 0 mm | - | 0 W/m² | - |
| 1777950063 | 14.44° C | 75% | 1011.2 hPa | 0 mm | - | 0 W/m² | - |
| 1777949885 | 14.44° C | 75% | 1011.1 hPa | 0 mm | - | 0 W/m² | - |
| 1777949643 | 14.44° C | 75% | 1011.1 hPa | 0 mm | - | 0 W/m² | - |
| 1777949464 | 14.44° C | 74% | 1011.1 hPa | 0 mm | - | 0 W/m² | - |
| 1777949404 | 14.44° C | 73% | 1011.2 hPa | 0 mm | - | 0 W/m² | - |
| 1777949349 | 14.44° C | 73% | 1011.3 hPa | 0 mm | - | 0 W/m² | - |
| 1777948444 | 14.44° C | 70% | 1011.2 hPa | 0 mm | - | 0 W/m² | - |
| 1777948384 | 14.44° C | 70% | 1011.2 hPa | 0 mm | - | 0 W/m² | - |
| 1777947964 | 15° C | 68% | 1011.2 hPa | 0 mm | - | 0 W/m² | - |
| 1777947664 | 15° C | 67% | 1011.2 hPa | 0 mm | - | 0 W/m² | - |
| 1777947251 | 15° C | 67% | 1011.2 hPa | 0 mm | - | 0 W/m² | - |
| 1777947123 | 15° C | 67% | 1011.2 hPa | 0 mm | - | 0 W/m² | - |
| 1777946824 | 15° C | 65% | 1011.2 hPa | 0 mm | - | 0 W/m² | - |
| 1777945083 | 15° C | 66% | 1011.7 hPa | 0 mm | - | 0 W/m² | - |
| 1777943644 | 15.56° C | 66% | 1011.8 hPa | 0 mm | - | 0 W/m² | - |
| 1777943404 | 15.56° C | 66% | 1011.9 hPa | 0 mm | - | 0 W/m² | - |
| 1777943164 | 15.56° C | 66% | 1012 hPa | 0 mm | - | 0 W/m² | - |
| 1777942504 | 15.56° C | 67% | 1012.2 hPa | 0 mm | - | 0 W/m² | - |
| 1777941724 | 15.56° C | 67% | 1012.5 hPa | 0 mm | - | 0 W/m² | - |
* Rain latest hour (hover to see other rain measurements)
** Current wind speed in m/s (hover to see current wind gust speed)